• în Republica Moldova
  • Lista ţărilor
  • Pe 7 zile
  • Temperatura apei
  • Hartă satelitară
  • Meteo pe hartă
  • Widget-uri
  • user-avatar
    Intrare

    Meteo pe oră la Dobratycze

    Astăzi, 21 Octombrie, Duminică

    Timp Temperatura Precipitaţii Vânt Presiune Umiditate
    00:00 +8°C° 0 mm 2 m/s 755 mmHg 72%
    01:00 +8°C° 0 mm 2 m/s 755 mmHg 73%
    02:00 +7°C° 0 mm 2 m/s 755 mmHg 73%
    03:00 +7°C° 0 mm 2 m/s 755 mmHg 75%
    04:00 +6°C° 0 mm 2 m/s 755 mmHg 77%
    05:00 +6°C° 0 mm 2 m/s 755 mmHg 78%
    06:00 +6°C° 0 mm 2 m/s 756 mmHg 79%
    07:00 +6°C° 0 mm 2 m/s 756 mmHg 80%
    08:00 +5°C° 0 mm 2 m/s 756 mmHg 80%
    09:00 +7°C° 0 mm 2 m/s 757 mmHg 73%
    10:00 +8°C° 0 mm 2 m/s 757 mmHg 67%
    11:00 +10°C° 0 mm 2 m/s 757 mmHg 60%
    12:00 +12°C° 0 mm 2 m/s 757 mmHg 57%
    13:00 +12°C° 0 mm 2 m/s 757 mmHg 54%
    14:00 +13°C° 0 mm 2 m/s 757 mmHg 52%
    15:00 +12°C° 0 mm 2 m/s 757 mmHg 55%
    16:00 +10°C° 0 mm 2 m/s 757 mmHg 59%
    17:00 +11°C° 0 mm 1 m/s 757 mmHg 63%
    18:00 +10°C° 0 mm 1 m/s 757 mmHg 66%
    19:00 +9°C° 0 mm 1 m/s 757 mmHg 69%
    20:00 +8°C° 0 mm 1 m/s 758 mmHg 73%
    21:00 +8°C° 0 mm 1 m/s 758 mmHg 74%
    22:00 +6°C° 0 mm 0 m/s 758 mmHg 76%
    23:00 +6°C° 0 mm 0 m/s 758 mmHg 78%

    Mâine, 22 Octombrie, Luni

    Timp Temperatura Precipitaţii Vânt Presiune Umiditate
    00:00 +6°C° 0 mm 0 m/s 758 mmHg 79%
    01:00 +6°C° 0 mm 0 m/s 758 mmHg 80%
    02:00 +5°C° 0 mm 0 m/s 758 mmHg 82%
    03:00 +6°C° 0 mm 1 m/s 757 mmHg 83%
    04:00 +6°C° 0 mm 1 m/s 757 mmHg 85%
    05:00 +6°C° 0 mm 1 m/s 757 mmHg 86%
    06:00 +6°C° 0 mm 1 m/s 757 mmHg 86%
    07:00 +6°C° 0 mm 1 m/s 757 mmHg 85%
    08:00 +6°C° 0 mm 1 m/s 757 mmHg 85%
    09:00 +8°C° 0 mm 1 m/s 757 mmHg 78%
    10:00 +8°C° 0 mm 2 m/s 757 mmHg 71%
    11:00 +10°C° 0 mm 2 m/s 757 mmHg 63%
    12:00 +12°C° 0 mm 2 m/s 756 mmHg 60%
    13:00 +12°C° 0 mm 2 m/s 755 mmHg 57%
    14:00 +12°C° 0 mm 3 m/s 755 mmHg 54%
    15:00 +11°C° 0 mm 3 m/s 754 mmHg 57%
    16:00 +12°C° 0 mm 2 m/s 754 mmHg 61%
    17:00 +10°C° 0 mm 2 m/s 753 mmHg 65%
    18:00 +9°C° 0 mm 2 m/s 753 mmHg 68%
    19:00 +8°C° 0 mm 2 m/s 753 mmHg 70%
    20:00 +8°C° 0 mm 3 m/s 753 mmHg 73%
    21:00 +8°C° 0.2 mm 3 m/s 753 mmHg 75%
    22:00 +8°C° 0.2 mm 3 m/s 753 mmHg 77%
    23:00 +7°C° 0.2 mm 4 m/s 753 mmHg 79%

    Poimâine, 23 Octombrie, Marţi

    Timp Temperatura Precipitaţii Vânt Presiune Umiditate
    00:00 +7°C° 0.5 mm 4 m/s 752 mmHg 81%
    01:00 +7°C° 0.5 mm 4 m/s 752 mmHg 83%
    02:00 +7°C° 0.5 mm 4 m/s 752 mmHg 85%
    03:00 +6°C° 0.1 mm 4 m/s 752 mmHg 86%
    04:00 +5°C° 0.1 mm 4 m/s 752 mmHg 87%
    05:00 +5°C° 0.1 mm 4 m/s 751 mmHg 88%
    06:00 +4°C° 0 mm 4 m/s 751 mmHg 87%
    07:00 +4°C° 0 mm 4 m/s 751 mmHg 87%
    08:00 +3°C° 0 mm 4 m/s 751 mmHg 87%
    09:00 +5°C° 0 mm 4 m/s 751 mmHg 81%
    10:00 +6°C° 0 mm 4 m/s 750 mmHg 74%
    11:00 +7°C° 0 mm 5 m/s 750 mmHg 67%
    12:00 +7°C° 0.1 mm 6 m/s 749 mmHg 66%
    13:00 +8°C° 0.1 mm 6 m/s 748 mmHg 64%
    14:00 +8°C° 0.1 mm 7 m/s 747 mmHg 63%
    15:00 +6°C° 0.2 mm 7 m/s 745 mmHg 65%
    16:00 +6°C° 0.2 mm 8 m/s 744 mmHg 68%
    17:00 +5°C° 0.2 mm 8 m/s 743 mmHg 71%
    18:00 +5°C° 0.6 mm 9 m/s 741 mmHg 73%
    19:00 +5°C° 0.6 mm 9 m/s 740 mmHg 75%
    20:00 +5°C° 0.6 mm 10 m/s 738 mmHg 77%
    21:00 +5°C° 1.4 mm 10 m/s 736 mmHg 79%
    22:00 +5°C° 1.4 mm 10 m/s 735 mmHg 80%
    23:00 +5°C° 1.4 mm 10 m/s 733 mmHg 82%

    24 Octombrie, Miercuri

    Timp Temperatura Precipitaţii Vânt Presiune Umiditate
    00:00 +6°C° 0.7 mm 10 m/s 732 mmHg 80%
    01:00 +6°C° 0.7 mm 9 m/s 731 mmHg 78%
    02:00 +7°C° 0.7 mm 9 m/s 730 mmHg 76%
    03:00 +6°C° 0.8 mm 9 m/s 730 mmHg 77%
    04:00 +6°C° 0.8 mm 9 m/s 730 mmHg 78%
    05:00 +6°C° 0.8 mm 10 m/s 730 mmHg 79%
    06:00 +5°C° 0.6 mm 9 m/s 731 mmHg 76%
    07:00 +3°C° 0.6 mm 9 m/s 732 mmHg 74%
    08:00 +4°C° 0.6 mm 8 m/s 732 mmHg 72%
    09:00 +3°C° 0.1 mm 9 m/s 733 mmHg 67%
    10:00 +3°C° 0.1 mm 9 m/s 734 mmHg 62%
    11:00 +3°C° 0.1 mm 10 m/s 734 mmHg 57%
    12:00 +3°C° 0.2 mm 10 m/s 734 mmHg 58%
    13:00 +3°C° 0.2 mm 10 m/s 735 mmHg 60%
    14:00 +3°C° 0.2 mm 10 m/s 735 mmHg 61%
    15:00 +3°C° 0.1 mm 10 m/s 735 mmHg 61%
    16:00 +3°C° 0.1 mm 10 m/s 735 mmHg 60%
    17:00 +3°C° 0.1 mm 10 m/s 735 mmHg 60%
    18:00 +3°C° 0.2 mm 11 m/s 735 mmHg 62%
    19:00 +3°C° 0.2 mm 11 m/s 735 mmHg 64%
    20:00 +3°C° 0.2 mm 12 m/s 735 mmHg 66%
    21:00 +3°C° 0.4 mm 11 m/s 735 mmHg 67%
    22:00 +3°C° 0.4 mm 11 m/s 736 mmHg 69%
    23:00 +3°C° 0.4 mm 11 m/s 736 mmHg 70%

    25 Octombrie, Joi

    Timp Temperatura Precipitaţii Vânt Presiune Umiditate
    00:00 +3°C° 0.2 mm 10 m/s 737 mmHg 71%
    01:00 +3°C° 0.2 mm 10 m/s 737 mmHg 72%
    02:00 +3°C° 0.2 mm 9 m/s 738 mmHg 72%
    03:00 +3°C° 0 mm 9 m/s 738 mmHg 73%
    04:00 +4°C° 0 mm 8 m/s 739 mmHg 73%
    05:00 +2°C° 0 mm 8 m/s 739 mmHg 73%
    06:00 +2°C° 0 mm 8 m/s 740 mmHg 74%
    07:00 +2°C° 0 mm 8 m/s 740 mmHg 75%
    08:00 +2°C° 0 mm 7 m/s 740 mmHg 77%
    09:00 +3°C° 0 mm 7 m/s 740 mmHg 72%
    10:00 +4°C° 0 mm 7 m/s 741 mmHg 68%
    11:00 +4°C° 0 mm 7 m/s 741 mmHg 64%
    12:00 +5°C° 0 mm 6 m/s 740 mmHg 63%
    13:00 +5°C° 0 mm 6 m/s 740 mmHg 61%
    14:00 +5°C° 0 mm 6 m/s 740 mmHg 60%
    15:00 +5°C° 0.2 mm 5 m/s 739 mmHg 66%
    16:00 +5°C° 0.2 mm 4 m/s 739 mmHg 73%
    17:00 +4°C° 0.2 mm 4 m/s 739 mmHg 80%
    18:00 +4°C° 0 mm 3 m/s 739 mmHg 83%
    19:00 +5°C° 0 mm 3 m/s 739 mmHg 85%
    20:00 +5°C° 0 mm 3 m/s 740 mmHg 88%
    21:00 +5°C° 0 mm 3 m/s 740 mmHg 91%
    22:00 +4°C° 0 mm 3 m/s 740 mmHg 93%
    23:00 +4°C° 0 mm 3 m/s 740 mmHg 95%

    26 Octombrie, Vineri

    Timp Temperatura Precipitaţii Vânt Presiune Umiditate
    00:00 +4°C° 0 mm 3 m/s 740 mmHg 94%
    01:00 +5°C° 0 mm 3 m/s 741 mmHg 94%
    02:00 +5°C° 0 mm 3 m/s 741 mmHg 93%
    03:00 +5°C° 0 mm 3 m/s 741 mmHg 93%
    04:00 +5°C° 0 mm 3 m/s 741 mmHg 93%
    05:00 +5°C° 0 mm 3 m/s 741 mmHg 93%
    06:00 +5°C° 0.1 mm 3 m/s 741 mmHg 92%
    07:00 +7°C° 0.1 mm 3 m/s 741 mmHg 91%
    08:00 +7°C° 0.1 mm 3 m/s 741 mmHg 91%
    09:00 +7°C° 0.3 mm 4 m/s 741 mmHg 90%
    10:00 +8°C° 0.3 mm 4 m/s 741 mmHg 90%
    11:00 +8°C° 0.3 mm 5 m/s 742 mmHg 90%
    12:00 +9°C° 0.3 mm 5 m/s 742 mmHg 88%
    13:00 +9°C° 0.3 mm 5 m/s 741 mmHg 86%
    14:00 +9°C° 0.3 mm 6 m/s 741 mmHg 84%
    15:00 +9°C° 0 mm 5 m/s 741 mmHg 84%
    16:00 +9°C° 0 mm 5 m/s 741 mmHg 84%
    17:00 +8°C° 0 mm 4 m/s 741 mmHg 84%
    18:00 +8°C° 0 mm 4 m/s 741 mmHg 83%
    19:00 +8°C° 0 mm 4 m/s 741 mmHg 82%
    20:00 +8°C° 0 mm 4 m/s 741 mmHg 80%
    21:00 +8°C° 0 mm 4 m/s 741 mmHg 81%
    22:00 +8°C° 0 mm 4 m/s 741 mmHg 82%
    23:00 +8°C° 0 mm 4 m/s 741 mmHg 82%
    Arată mai mult